SWR16MJ EGLL-LSZH

Flight info

Callsign SWR16MJ
Flight time 1h 13m
Altitude 29000
Route DET L6 DVR UL9 KONAN DCT KOK DCT SISGA DCT RITAX DCT KRH M150 LAMGO/N0472F270 T721 SUL/N0458F250 T721 RILAX
Aircraft B77W/H-SDE1E2E3FGHIJ2J3J4J5M1RWXY/LB1D1

Departure

Time 2026-05-06 16:17
Airport London Heathrow Airport (EGLL)

Arrival

Time 2026-05-06 17:30
Airport Zürich Airport (LSZH)
Time Latitude Longitude Altitude Speed Heading
2026-05-06 15:38 51.47017 -0.46537 90 ft 0 kts 57°
2026-05-06 16:05 51.47006 -0.46564 94 ft 4 kts 64°
2026-05-06 16:05 51.46997 -0.46604 92 ft 4 kts 79°
2026-05-06 16:05 51.46996 -0.46646 92 ft 4 kts 103°
2026-05-06 16:05 51.47007 -0.46682 93 ft 4 kts 140°
2026-05-06 16:06 51.47011 -0.46687 93 ft 0 kts 144°
2026-05-06 16:09 51.47010 -0.46687 91 ft 1 kts 144°
2026-05-06 16:10 51.46984 -0.46657 96 ft 8 kts 144°
2026-05-06 16:10 51.46931 -0.46596 95 ft 10 kts 144°
2026-05-06 16:10 51.46876 -0.46534 98 ft 10 kts 145°
2026-05-06 16:10 51.46820 -0.46472 99 ft 10 kts 147°
2026-05-06 16:11 51.46760 -0.46469 101 ft 10 kts 231°
2026-05-06 16:11 51.46747 -0.46580 100 ft 10 kts 269°
2026-05-06 16:11 51.46747 -0.46713 101 ft 13 kts 270°
2026-05-06 16:11 51.46747 -0.46857 101 ft 13 kts 270°
2026-05-06 16:12 51.46747 -0.47023 97 ft 17 kts 270°
2026-05-06 16:12 51.46747 -0.47213 97 ft 18 kts 269°
2026-05-06 16:12 51.46746 -0.47411 95 ft 18 kts 270°
2026-05-06 16:12 51.46746 -0.47592 93 ft 9 kts 269°
2026-05-06 16:13 51.46745 -0.47694 93 ft 9 kts 269°
2026-05-06 16:13 51.46745 -0.47796 94 ft 9 kts 269°
2026-05-06 16:13 51.46744 -0.47887 94 ft 7 kts 270°
2026-05-06 16:13 51.46744 -0.47987 94 ft 14 kts 269°
2026-05-06 16:14 51.46742 -0.48171 97 ft 17 kts 269°
2026-05-06 16:14 51.46742 -0.48358 99 ft 17 kts 269°
2026-05-06 16:14 51.46739 -0.48551 97 ft 15 kts 268°
2026-05-06 16:14 51.46736 -0.48670 97 ft 7 kts 266°
2026-05-06 16:15 51.46711 -0.48728 100 ft 7 kts 211°
2026-05-06 16:15 51.46650 -0.48746 97 ft 11 kts 189°
2026-05-06 16:15 51.46557 -0.48780 99 ft 15 kts 184°
2026-05-06 16:15 51.46481 -0.48694 100 ft 15 kts 104°
2026-05-06 16:16 51.46477 -0.48529 98 ft 15 kts 89°
2026-05-06 16:16 51.46478 -0.48331 99 ft 28 kts 90°
2026-05-06 16:16 51.46483 -0.47609 95 ft 109 kts 90°
2026-05-06 16:16 51.46487 -0.45976 126 ft 176 kts 86°
2026-05-06 16:17 51.46537 -0.43996 942 ft 178 kts 79°
2026-05-06 16:17 51.46768 -0.42080 1946 ft 176 kts 79°
2026-05-06 16:17 51.46504 -0.39998 2308 ft 213 kts 118°
2026-05-06 16:17 51.45593 -0.37906 2595 ft 244 kts 121°
2026-05-06 16:18 51.44625 -0.35564 3353 ft 259 kts 120°
2026-05-06 16:18 51.43700 -0.33066 4332 ft 263 kts 115°
2026-05-06 16:18 51.43003 -0.30346 5297 ft 266 kts 105°
2026-05-06 16:18 51.42553 -0.27460 5884 ft 268 kts 99°
2026-05-06 16:19 51.42196 -0.24533 5995 ft 275 kts 98°
2026-05-06 16:19 51.41820 -0.21532 6004 ft 274 kts 99°
2026-05-06 16:19 51.41425 -0.18549 5988 ft 272 kts 101°
2026-05-06 16:19 51.41024 -0.15589 5978 ft 271 kts 101°
2026-05-06 16:20 51.40620 -0.12629 5995 ft 273 kts 100°
2026-05-06 16:20 51.40210 -0.09646 5997 ft 274 kts 101°
2026-05-06 16:20 51.39797 -0.06656 5997 ft 276 kts 101°
2026-05-06 16:20 51.39386 -0.03683 6002 ft 276 kts 100°
2026-05-06 16:21 51.38969 -0.00675 5992 ft 276 kts 100°
2026-05-06 16:21 51.38553 0.02313 6001 ft 272 kts 101°
2026-05-06 16:21 51.38143 0.05248 5994 ft 268 kts 101°
2026-05-06 16:21 51.37735 0.08166 5993 ft 268 kts 101°
2026-05-06 16:22 51.37326 0.11086 6000 ft 269 kts 101°
2026-05-06 16:22 51.36920 0.13981 6004 ft 269 kts 101°
2026-05-06 16:22 51.36509 0.16913 6003 ft 270 kts 101°
2026-05-06 16:22 51.36096 0.19842 6006 ft 271 kts 101°
2026-05-06 16:23 51.35680 0.22789 5994 ft 271 kts 101°
2026-05-06 16:23 51.35264 0.25730 5993 ft 271 kts 101°
2026-05-06 16:23 51.34847 0.28676 5996 ft 271 kts 101°
2026-05-06 16:23 51.34429 0.31611 5993 ft 271 kts 102°
2026-05-06 16:24 51.34012 0.34545 5993 ft 271 kts 101°
2026-05-06 16:24 51.33600 0.37447 5989 ft 270 kts 101°
2026-05-06 16:24 51.33181 0.40385 5969 ft 270 kts 101°
2026-05-06 16:24 51.32762 0.43314 5990 ft 271 kts 101°
2026-05-06 16:25 51.32341 0.46246 5994 ft 271 kts 102°
2026-05-06 16:25 51.31918 0.49196 6013 ft 273 kts 102°
2026-05-06 16:25 51.31492 0.52149 5994 ft 273 kts 101°
2026-05-06 16:25 51.31064 0.55113 5995 ft 273 kts 102°
2026-05-06 16:26 51.30635 0.58070 5991 ft 273 kts 102°
2026-05-06 16:26 51.30191 0.61014 6047 ft 273 kts 104°
2026-05-06 16:26 51.29669 0.63940 6842 ft 274 kts 105°
2026-05-06 16:26 51.29123 0.66889 7949 ft 282 kts 105°
2026-05-06 16:27 51.28561 0.69924 9067 ft 288 kts 105°
2026-05-06 16:27 51.27987 0.73032 10175 ft 293 kts 105°
2026-05-06 16:27 51.27397 0.76232 11006 ft 310 kts 105°
2026-05-06 16:27 51.26767 0.79667 11360 ft 342 kts 105°
2026-05-06 16:28 51.26063 0.83498 11624 ft 376 kts 105°
2026-05-06 16:28 51.25306 0.87610 12419 ft 390 kts 105°
2026-05-06 16:28 51.24532 0.91798 13559 ft 397 kts 106°
2026-05-06 16:28 51.23750 0.96024 14570 ft 404 kts 106°
2026-05-06 16:29 51.22950 1.00337 15722 ft 407 kts 106°
2026-05-06 16:29 51.22141 1.04694 16789 ft 412 kts 107°
2026-05-06 16:29 51.21319 1.09116 17790 ft 419 kts 107°
2026-05-06 16:29 51.20478 1.13625 18681 ft 427 kts 107°
2026-05-06 16:30 51.19627 1.18184 19597 ft 431 kts 107°
2026-05-06 16:30 51.19347 1.19681 19908 ft 432 kts 107°
2026-05-06 16:30 51.17898 1.27415 21313 ft 443 kts 107°
2026-05-06 16:30 51.17012 1.32144 22174 ft 448 kts 107°
2026-05-06 16:31 51.16293 1.37002 23019 ft 453 kts 101°
2026-05-06 16:31 51.15905 1.42028 23773 ft 459 kts 95°
2026-05-06 16:31 51.15685 1.47132 24408 ft 465 kts 95°
2026-05-06 16:31 51.15467 1.52306 25084 ft 469 kts 95°
2026-05-06 16:32 51.15239 1.57508 25803 ft 472 kts 95°
2026-05-06 16:32 51.14996 1.62743 26501 ft 475 kts 95°
2026-05-06 16:32 51.14743 1.67942 27142 ft 479 kts 95°
2026-05-06 16:32 51.14474 1.73321 27757 ft 483 kts 95°
2026-05-06 16:33 51.14207 1.78588 28338 ft 486 kts 95°
2026-05-06 16:33 51.13930 1.83993 28882 ft 490 kts 95°
2026-05-06 16:34 51.13084 2.00324 28963 ft 492 kts 95°
2026-05-06 16:34 51.12606 2.09329 28961 ft 493 kts 96°
2026-05-06 16:35 51.12019 2.20247 28957 ft 494 kts 96°
2026-05-06 16:35 51.11333 2.32884 28940 ft 492 kts 95°
2026-05-06 16:36 51.10827 2.42008 28941 ft 491 kts 96°
2026-05-06 16:36 51.10214 2.52758 28937 ft 491 kts 96°
2026-05-06 16:37 51.09223 2.63482 28929 ft 490 kts 106°
2026-05-06 16:37 51.06835 2.73592 28939 ft 488 kts 118°
2026-05-06 16:38 51.03618 2.83131 28938 ft 490 kts 120°
2026-05-06 16:38 51.00389 2.92634 28935 ft 488 kts 119°
2026-05-06 16:39 50.97201 3.02113 28924 ft 486 kts 119°
2026-05-06 16:39 50.94020 3.11594 28931 ft 486 kts 119°
2026-05-06 16:40 50.90861 3.20986 28900 ft 486 kts 120°
2026-05-06 16:40 50.87663 3.30448 28919 ft 487 kts 119°
2026-05-06 16:41 50.84470 3.39861 28902 ft 485 kts 119°
2026-05-06 16:41 50.81262 3.49277 28905 ft 485 kts 118°
2026-05-06 16:42 50.78052 3.58670 28905 ft 486 kts 119°
2026-05-06 16:42 50.74842 3.68027 28900 ft 486 kts 119°
2026-05-06 16:43 50.71613 3.77405 28908 ft 484 kts 120°
2026-05-06 16:43 50.68407 3.86683 28885 ft 478 kts 120°
2026-05-06 16:44 50.65222 3.95866 28890 ft 475 kts 120°
2026-05-06 16:44 50.62048 4.04996 28896 ft 475 kts 120°
2026-05-06 16:45 50.59170 4.14315 28887 ft 477 kts 116°
2026-05-06 16:45 50.56358 4.23804 28888 ft 479 kts 116°
2026-05-06 16:46 50.53521 4.33319 28886 ft 481 kts 116°
2026-05-06 16:46 50.50664 4.42811 28886 ft 481 kts 116°
2026-05-06 16:47 50.47785 4.52319 28884 ft 481 kts 116°
2026-05-06 16:47 50.44917 4.61748 28889 ft 481 kts 116°
2026-05-06 16:47 50.43484 4.66456 28701 ft 476 kts 118°
2026-05-06 16:48 50.42060 4.71122 28782 ft 474 kts 118°
2026-05-06 16:48 50.39186 4.80491 28880 ft 478 kts 118°
2026-05-06 16:49 50.36289 4.89905 28882 ft 480 kts 119°
2026-05-06 16:49 50.33401 4.99263 28881 ft 480 kts 119°
2026-05-06 16:50 50.30496 5.08640 28863 ft 477 kts 118°
2026-05-06 16:50 50.27607 5.17933 28878 ft 473 kts 119°
2026-05-06 16:51 50.24730 5.27148 28885 ft 471 kts 119°
2026-05-06 16:51 50.21847 5.36346 28892 ft 471 kts 119°
2026-05-06 16:52 50.18954 5.45539 28865 ft 471 kts 119°
2026-05-06 16:52 50.16075 5.54658 28862 ft 473 kts 119°
2026-05-06 16:53 50.13140 5.63922 28865 ft 478 kts 119°
2026-05-06 16:53 50.10180 5.73237 28874 ft 482 kts 119°
2026-05-06 16:54 50.07150 5.82564 28860 ft 481 kts 122°
2026-05-06 16:54 50.03823 5.91566 28856 ft 478 kts 123°
2026-05-06 16:55 50.00450 6.00509 28843 ft 477 kts 123°
2026-05-06 16:55 49.97112 6.09380 28857 ft 478 kts 123°
2026-05-06 16:56 49.93762 6.18299 28862 ft 478 kts 123°
2026-05-06 16:56 49.90406 6.27219 28830 ft 480 kts 123°
2026-05-06 16:57 49.87026 6.36172 28802 ft 479 kts 124°
2026-05-06 16:57 49.83679 6.45009 28819 ft 479 kts 124°
2026-05-06 16:58 49.80304 6.53885 28810 ft 477 kts 124°
2026-05-06 16:58 49.76923 6.62743 28817 ft 476 kts 124°
2026-05-06 16:59 49.73551 6.71553 28821 ft 476 kts 124°
2026-05-06 16:59 49.70177 6.80342 28807 ft 478 kts 124°
2026-05-06 17:00 49.66766 6.89178 28787 ft 477 kts 124°
2026-05-06 17:00 49.63372 6.97963 28816 ft 476 kts 124°
2026-05-06 17:01 49.59972 7.06723 28819 ft 476 kts 124°
2026-05-06 17:01 49.56558 7.15490 28808 ft 476 kts 124°
2026-05-06 17:02 49.53148 7.24220 28807 ft 476 kts 124°
2026-05-06 17:02 49.49719 7.32970 28813 ft 476 kts 125°
2026-05-06 17:03 49.46295 7.41678 28818 ft 474 kts 125°
2026-05-06 17:03 49.42894 7.50299 28806 ft 473 kts 125°
2026-05-06 17:04 49.39469 7.58953 28798 ft 473 kts 125°
2026-05-06 17:04 49.36044 7.67577 28791 ft 473 kts 125°
2026-05-06 17:05 49.32628 7.76149 28806 ft 473 kts 125°
2026-05-06 17:05 49.29580 7.83779 28807 ft 474 kts 125°
2026-05-06 17:06 49.26129 7.92412 28810 ft 474 kts 125°
2026-05-06 17:06 49.22679 8.00993 28787 ft 473 kts 125°
2026-05-06 17:07 49.19232 8.09549 28814 ft 472 kts 126°
2026-05-06 17:07 49.15758 8.18100 28819 ft 473 kts 126°
2026-05-06 17:08 49.12286 8.26641 28833 ft 474 kts 126°
2026-05-06 17:08 49.08805 8.35190 28824 ft 474 kts 126°
2026-05-06 17:09 49.05338 8.43679 28817 ft 474 kts 126°
2026-05-06 17:09 49.01849 8.52198 28816 ft 473 kts 126°
2026-05-06 17:10 48.98230 8.60519 28848 ft 469 kts 132°
2026-05-06 17:10 48.94010 8.68058 28828 ft 468 kts 134°
2026-05-06 17:11 48.89241 8.74459 28822 ft 454 kts 158°
2026-05-06 17:11 48.86246 8.75922 28844 ft 451 kts 170°
2026-05-06 17:11 48.83127 8.76422 28821 ft 451 kts 181°
2026-05-06 17:12 48.76953 8.74988 27963 ft 451 kts 191°
2026-05-06 17:12 48.73896 8.74085 27240 ft 445 kts 191°
2026-05-06 17:12 48.70868 8.73208 26520 ft 439 kts 191°
2026-05-06 17:12 48.67884 8.72368 25833 ft 434 kts 190°
2026-05-06 17:13 48.64926 8.71562 25162 ft 430 kts 190°
2026-05-06 17:13 48.62030 8.70788 24497 ft 426 kts 189°
2026-05-06 17:13 48.59118 8.70016 23830 ft 424 kts 189°
2026-05-06 17:13 48.56216 8.69250 23094 ft 423 kts 189°
2026-05-06 17:14 48.53326 8.68488 22364 ft 419 kts 189°
2026-05-06 17:14 48.50458 8.67731 21690 ft 415 kts 189°
2026-05-06 17:14 48.47624 8.66983 21027 ft 411 kts 190°
2026-05-06 17:14 48.44814 8.66242 20346 ft 408 kts 190°
2026-05-06 17:15 48.42024 8.65507 19692 ft 405 kts 190°
2026-05-06 17:15 48.39253 8.64778 19067 ft 402 kts 190°
2026-05-06 17:15 48.36514 8.64033 18433 ft 399 kts 191°
2026-05-06 17:15 48.33803 8.63224 17763 ft 396 kts 192°
2026-05-06 17:16 48.31153 8.62409 17120 ft 392 kts 192°
2026-05-06 17:16 48.28488 8.61591 16487 ft 389 kts 192°
2026-05-06 17:16 48.25810 8.60777 15861 ft 386 kts 192°
2026-05-06 17:16 48.23220 8.59993 15262 ft 383 kts 192°
2026-05-06 17:17 48.20613 8.59210 14679 ft 380 kts 192°
2026-05-06 17:17 48.18027 8.58437 14079 ft 378 kts 192°
2026-05-06 17:17 48.15451 8.57670 13471 ft 376 kts 192°
2026-05-06 17:17 48.12889 8.56909 12825 ft 373 kts 192°
2026-05-06 17:18 48.10368 8.56160 12222 ft 370 kts 192°
2026-05-06 17:18 48.07863 8.55415 11640 ft 364 kts 192°
2026-05-06 17:18 48.05403 8.54685 11073 ft 360 kts 192°
2026-05-06 17:18 48.02946 8.53957 10742 ft 357 kts 191°
2026-05-06 17:19 48.00534 8.53243 10604 ft 348 kts 191°
2026-05-06 17:19 47.98181 8.52548 10452 ft 341 kts 191°
2026-05-06 17:19 47.95908 8.51876 10304 ft 332 kts 191°
2026-05-06 17:19 47.93748 8.51000 10149 ft 312 kts 202°
2026-05-06 17:20 47.91893 8.49514 10029 ft 294 kts 210°
2026-05-06 17:20 47.90161 8.48049 9916 ft 279 kts 209°
2026-05-06 17:20 47.88473 8.46670 9691 ft 279 kts 209°
2026-05-06 17:20 47.86763 8.45281 9429 ft 277 kts 209°
2026-05-06 17:21 47.85083 8.43918 9057 ft 272 kts 209°
2026-05-06 17:21 47.83413 8.42564 8777 ft 275 kts 209°
2026-05-06 17:21 47.81734 8.41202 8512 ft 270 kts 209°
2026-05-06 17:21 47.80118 8.39893 8161 ft 264 kts 209°
2026-05-06 17:22 47.78492 8.38578 7842 ft 268 kts 209°
2026-05-06 17:22 47.76830 8.37235 7515 ft 267 kts 209°
2026-05-06 17:22 47.75288 8.35844 7341 ft 258 kts 219°
2026-05-06 17:22 47.73979 8.33933 6955 ft 266 kts 227°
2026-05-06 17:23 47.72765 8.31916 6616 ft 255 kts 228°
2026-05-06 17:23 47.71613 8.30022 6348 ft 240 kts 227°
2026-05-06 17:23 47.70487 8.28271 6092 ft 229 kts 217°
2026-05-06 17:23 47.69037 8.27428 6000 ft 229 kts 185°
2026-05-06 17:24 47.67470 8.27951 5793 ft 239 kts 152°
2026-05-06 17:24 47.66126 8.29317 5613 ft 232 kts 147°
2026-05-06 17:24 47.64864 8.30800 5373 ft 229 kts 142°
2026-05-06 17:24 47.63682 8.32369 5114 ft 227 kts 140°
2026-05-06 17:25 47.62535 8.33947 4882 ft 223 kts 139°
2026-05-06 17:25 47.61413 8.35495 4695 ft 217 kts 140°
2026-05-06 17:25 47.60346 8.36974 4518 ft 209 kts 140°
2026-05-06 17:25 47.59292 8.38419 4313 ft 202 kts 140°
2026-05-06 17:26 47.58279 8.39810 4064 ft 190 kts 140°
2026-05-06 17:26 47.57313 8.41133 3936 ft 192 kts 140°
2026-05-06 17:26 47.56364 8.42436 3634 ft 178 kts 140°
2026-05-06 17:26 47.55517 8.43602 3425 ft 156 kts 140°
2026-05-06 17:27 47.54758 8.44635 3206 ft 145 kts 141°
2026-05-06 17:27 47.54014 8.45647 3016 ft 146 kts 141°
2026-05-06 17:27 47.53272 8.46666 2852 ft 146 kts 140°
2026-05-06 17:27 47.52515 8.47708 2746 ft 151 kts 140°
2026-05-06 17:28 47.51753 8.48756 2439 ft 146 kts 142°
2026-05-06 17:28 47.51022 8.49762 2234 ft 143 kts 140°
2026-05-06 17:28 47.50298 8.50752 1998 ft 140 kts 139°
2026-05-06 17:28 47.49583 8.51748 1790 ft 142 kts 140°
2026-05-06 17:29 47.48860 8.52728 1620 ft 140 kts 139°
2026-05-06 17:29 47.48155 8.53691 1437 ft 136 kts 142°
2026-05-06 17:29 47.47501 8.54571 1411 ft 113 kts 138°
2026-05-06 17:29 47.47034 8.55207 1407 ft 69 kts 137°
2026-05-06 17:30 47.46753 8.55596 1411 ft 44 kts 137°
2026-05-06 17:30 47.46605 8.55795 1405 ft 26 kts 140°
2026-05-06 17:30 47.46452 8.55927 1403 ft 26 kts 161°
2026-05-06 17:30 47.46315 8.55977 1410 ft 10 kts 168°
2026-05-06 17:31 47.46270 8.55990 1410 ft 1 kts 171°
2026-05-06 17:31 47.46263 8.55992 1411 ft 1 kts 170°
2026-05-06 17:31 47.46253 8.55995 1409 ft 3 kts 169°
2026-05-06 17:31 47.46180 8.56003 1405 ft 14 kts 182°
2026-05-06 17:32 47.46086 8.55991 1408 ft 14 kts 185°
2026-05-06 17:32 47.45992 8.55975 1411 ft 14 kts 188°
2026-05-06 17:32 47.45939 8.55879 1411 ft 14 kts 274°
2026-05-06 17:32 47.45946 8.55754 1404 ft 7 kts 275°
2026-05-06 17:33 47.45951 8.55670 1406 ft 14 kts 276°
2026-05-06 17:33 47.45961 8.55537 1405 ft 9 kts 277°
2026-05-06 17:33 47.45981 8.55517 1410 ft 2 kts 354°
2026-05-06 17:33 47.45997 8.55520 1410 ft 2 kts
2026-05-06 17:34 47.46013 8.55522 1409 ft 2 kts
2026-05-06 17:34 47.46030 8.55525 1409 ft 2 kts
2026-05-06 17:34 47.46044 8.55528 1409 ft 1 kts
2026-05-06 17:34 47.46047 8.55528 1409 ft 1 kts
2026-05-06 17:35 47.46048 8.55528 1409 ft 0 kts